[[{"header":{"parameterUnit":"m.s-1","parameterCategory":1,"la1":30.2991,"la2":30.254,"lo1":-89.0895,"lo2":-89.0444,"dy":0.0017,"dx":0.0017,"nx":28,"ny":28,"refTime":"2024-05-04T09:00:00:Z","depth":0,"parameterNumber":2,"parameterNumberName":"U-component_of_WINDS"},"data":[0,0,0,0,0,0,0,0,0,0,0,0,0,0,0,0,0,0,0,0,0,0,0,0,0,0,0,0,0,0,0,0,0,0,0,0,0,0,0,0,0,0,0,0,0,0,0,0,0,0,0,0,0,0,0,0,0,0,-2.5888,-2.5888,0,-2.5843,-2.5843,-2.5842,-2.574,-2.5738,-2.5736,-2.5734,-2.5691,-2.5691,-2.5692,0,0,0,0,0,0,0,0,0,0,0,0,0,-2.5889,-2.5889,-2.5888,-2.5888,-2.5887,-2.5844,-2.5843,-2.5842,-2.574,-2.5738,-2.5735,-2.5733,-2.569,-2.5691,-2.5692,0,0,0,0,0,0,0,0,0,0,0,0,0,-2.5871,-2.589,-2.5888,-2.5831,-2.5825,-2.5844,-2.5843,-2.5842,-2.5741,-2.5738,-2.5735,-2.5732,-2.569,-2.5691,-2.5692,-2.5763,0,0,-2.5696,-2.5697,0,0,0,0,0,0,0,0,-2.5872,-2.5871,-2.584,-2.5835,-2.5829,-2.5794,-2.5827,-2.5816,-2.5742,-2.5773,-2.5734,-2.573,-2.5728,-2.5726,-2.5724,-2.5761,-2.5759,-2.5696,-2.5697,-2.5697,-2.5698,0,0,0,0,0,0,0,-2.5873,-2.5872,-2.587,-2.584,-2.5833,-2.5809,-2.5803,-2.5825,-2.5769,-2.577,-2.5763,-2.5759,-2.5724,-2.5723,-2.5722,-2.5759,-2.5696,-2.5697,-2.5698,-2.5698,-2.5854,-2.5857,0,0,0,0,0,0,-2.5883,-2.5874,-2.5872,-2.5869,-2.5843,-2.5811,-2.5804,-2.5808,-2.5768,-2.5759,-2.5761,-2.5754,-2.5723,-2.5721,-2.5721,-2.5801,-2.5697,-2.5699,-2.5699,-2.5851,-2.5855,-2.5858,0,0,0,0,0,0,-2.5883,-2.5883,-2.5874,-2.587,-2.5866,-2.5815,-2.582,-2.5809,-2.5808,-2.5762,-2.5751,-2.5771,-2.572,-2.5719,-2.5754,-2.5799,-2.5699,-2.57,-2.5847,-2.5852,-2.5857,-2.5964,0,0,0,0,0,0,-2.5883,-2.5884,-2.5909,-2.5871,-2.5867,-2.5907,-2.5823,-2.5811,-2.581,-2.58,-2.5768,-2.5759,-2.5718,-2.5752,-2.5755,-2.5798,-2.5701,-2.5842,-2.5849,-2.5855,-2.5956,-2.5972,-2.5986,0,0,0,0,0,-2.5884,-2.5942,-2.5911,-2.5912,-2.5898,-2.5909,-2.5907,-2.5858,-2.5814,-2.584,-2.5811,-2.576,-2.5794,-2.5757,-2.5759,-2.5803,-2.5839,-2.5847,-2.5854,-2.595,-2.5969,-2.5985,0,0,0,0,0,0,-2.5987,-2.5935,-2.5901,-2.5948,-2.5934,-2.5892,-2.5922,-2.588,-2.5878,-2.5869,-2.5808,-2.5802,-2.5845,-2.5828,-2.5788,-2.5871,-2.5808,-2.5817,-2.588,-2.5898,-2.5913,-2.5916,-2.5702,0,0,0,0,0,-2.6015,-2.6028,-2.5983,-2.6029,-2.6023,-2.5975,-2.5978,-2.5941,-2.5924,-2.5918,-2.5891,-2.5877,-2.5885,-2.5891,-2.5895,-2.5954,-2.5946,-2.5986,-2.6001,-2.6013,-2.6021,-2.6052,-2.6069,-2.5883,-2.5883,-2.5883,0,0,-2.6073,-2.6047,-2.6059,-2.6049,-2.6033,-2.6049,-2.597,-2.599,-2.6001,-2.5921,-2.5952,-2.5932,-2.5913,-2.5961,-2.5981,-2.5948,-2.6071,-2.6023,-2.6033,-2.6034,-2.6062,-2.6079,-2.6095,-2.5889,-2.5888,-2.5887,0,0,-2.6187,-2.6169,-2.6205,-2.6192,-2.617,-2.6137,-2.6147,-2.6112,-2.6095,-2.6126,-2.6066,-2.608,-2.6094,-2.6083,-2.6079,-2.6193,-2.6147,-2.6196,-2.6273,-2.6304,-2.6319,-2.6331,-2.6372,-2.6387,-2.6204,-2.6205,-2.6205,0,-2.6262,-2.6283,-2.6229,-2.6253,-2.6251,-2.618,-2.6217,-2.6207,-2.6188,-2.6189,-2.6153,-2.617,-2.6152,-2.6197,-2.6225,-2.6224,-2.6234,-2.6199,-2.6321,-2.6333,-2.6344,-2.6382,-2.6398,-2.6211,-2.621,-2.6209,-2.6209,0,-2.6377,-2.6392,-2.6424,-2.6408,-2.6409,-2.644,-2.6393,-2.6402,-2.6366,-2.6338,-2.6371,-2.6348,-2.6346,-2.6355,-2.632,-2.6395,-2.6376,-2.6332,-2.6267,-2.6369,-2.6404,-2.6418,-2.622,-2.6217,-2.6216,-2.6214,0,0,-2.6551,-2.6506,-2.6519,-2.6511,-2.6483,-2.6494,-2.6523,-2.6522,-2.6531,-2.6521,-2.6544,-2.6559,-2.6518,-2.6515,-2.6479,-2.6506,-2.6598,-2.6458,-2.6457,-2.6485,-2.6681,-2.6714,-2.6731,-2.6568,-2.6571,-2.6573,-2.6682,0,-2.6658,-2.6702,-2.6657,-2.6711,-2.6725,-2.666,-2.6685,-2.6671,-2.6647,-2.6657,-2.663,-2.6642,-2.6587,-2.6585,-2.6609,-2.6582,-2.6637,-2.6574,-2.659,-2.6591,-2.6595,-2.6749,-2.6783,-2.6887,-2.6695,-2.6698,-2.6699,0,-2.6787,-2.6783,-2.684,-2.6809,-2.6814,-2.6837,-2.6833,-2.6843,-2.6827,-2.6808,-2.6805,-2.6762,-2.6789,-2.6728,-2.6766,-2.6724,-2.6729,-2.6717,-2.672,-2.6718,-2.665,-2.6752,-2.6919,-2.6935,-2.672,-2.6719,-2.6717,0,-2.6909,-2.6918,-2.6953,-2.6949,-2.6915,-2.6933,-2.692,-2.6901,-2.6903,-2.6901,-2.6902,-2.6903,-2.6904,-2.6907,-2.6865,-2.6824,-2.6909,-2.6844,-2.6894,-2.6895,-2.6913,-2.6912,-2.7084,-2.6918,-2.6918,-2.6918,-2.6917,0,-2.7032,-2.7069,-2.7007,-2.7029,-2.7069,-2.7017,-2.7059,-2.7039,-2.7024,-2.7041,-2.6985,-2.7003,-2.6948,-2.6961,-2.6929,-2.6966,-2.6967,-2.6952,-2.6943,-2.6957,-2.6959,-2.6958,-2.6949,-2.6922,-2.6921,-2.692,-2.6919,0,-2.7173,-2.7134,-2.7168,-2.7133,-2.7126,-2.7157,-2.7128,-2.7147,-2.7121,-2.7144,-2.7146,-2.7104,-2.7117,-2.7076,-2.7082,-2.7061,-2.7115,-2.7094,-2.712,-2.7113,-2.7166,-2.7161,-2.7341,-2.7363,-2.7185,-2.7187,-2.7188,0,-2.7254,-2.728,-2.725,-2.7257,-2.7247,-2.726,-2.7263,-2.7214,-2.722,-2.7205,-2.7227,-2.7235,-2.7238,-2.7261,-2.7232,-2.7237,-2.7215,-2.7278,-2.7216,-2.7229,-2.7216,-2.7215,-2.7218,-2.7291,-2.7293,-2.7295,-2.7296,0,-2.7401,-2.738,-2.7386,-2.7386,-2.7391,-2.7389,-2.7382,-2.7392,-2.734,-2.735,-2.7361,-2.7364,-2.7371,-2.738,-2.7379,-2.7366,-2.7324,-2.7317,-2.7329,-2.7342,-2.7356,-2.7349,-2.7155,-2.7312,-2.7311,-2.731,-2.7309,-2.7308,-2.7514,-2.7535,-2.7517,-2.7526,-2.7517,-2.7513,-2.7529,-2.7505,-2.7514,-2.7515,-2.7486,-2.7505,-2.7491,-2.7485,-2.7477,-2.7492,-2.7462,-2.748,-2.7484,-2.7489,-2.7497,-2.7355,-2.7491,-2.7491,-2.749,-2.749,-2.749,0,-2.7658,-2.7643,-2.7652,-2.7646,-2.7653,-2.7613,-2.7604,-2.7614,-2.763,-2.762,-2.7625,-2.764,-2.7649,-2.7622,-2.7627,-2.7644,-2.7625,-2.7647,-2.7645,-2.7643,-2.7523,-2.7512,-2.7663,-2.7663,-2.7663,-2.7663,-2.7662,-2.7662,-2.7733,-2.7767,-2.7746,-2.7776,-2.7761,-2.7778,-2.7777,-2.7774,-2.7766,-2.7785,-2.7792,-2.7774,-2.7758,-2.7762,-2.7769,-2.776,-2.7765,-2.7794,-2.778,-2.7668,-2.7651,-2.7635,-2.7624,-2.7796,-2.7796,-2.7898,-2.7899,-2.79]},{"header":{"parameterUnit":"m.s-1","parameterCategory":1,"la1":30.2991,"la2":30.254,"lo1":-89.0895,"lo2":-89.0444,"dy":0.0017,"dx":0.0017,"nx":28,"ny":28,"refTime":"2024-05-04T09:00:00:Z","depth":0,"parameterNumber":3,"parameterNumberName":"V-component_of_WINDS"},"data":[0,0,0,0,0,0,0,0,0,0,0,0,0,0,0,0,0,0,0,0,0,0,0,0,0,0,0,0,0,0,0,0,0,0,0,0,0,0,0,0,0,0,0,0,0,0,0,0,0,0,0,0,0,0,0,0,0,0,2.5362,2.5363,0,2.5457,2.5458,2.5459,2.5525,2.5525,2.5526,2.5526,2.5619,2.5621,2.5623,0,0,0,0,0,0,0,0,0,0,0,0,0,2.5234,2.5236,2.5362,2.5363,2.5364,2.5457,2.5458,2.5459,2.5525,2.5525,2.5526,2.5526,2.5619,2.5621,2.5623,0,0,0,0,0,0,0,0,0,0,0,0,0,2.5305,2.5237,2.5362,2.5408,2.5413,2.5456,2.5458,2.5459,2.5524,2.5525,2.5526,2.5527,2.5618,2.5621,2.5624,2.5627,0,0,2.5633,2.5634,0,0,0,0,0,0,0,0,2.5301,2.531,2.54,2.5405,2.5411,2.548,2.5447,2.5515,2.5524,2.5482,2.5526,2.5527,2.5572,2.5579,2.5595,2.5631,2.5635,2.5633,2.5635,2.5636,2.5637,0,0,0,0,0,0,0,2.5296,2.5306,2.5399,2.5401,2.5408,2.5423,2.5434,2.546,2.5521,2.5486,2.5491,2.5501,2.5575,2.5592,2.5597,2.5637,2.5633,2.5636,2.5638,2.5639,2.5681,2.568,0,0,0,0,0,0,2.5284,2.5301,2.5396,2.5402,2.5357,2.5425,2.5437,2.5457,2.5521,2.5532,2.5501,2.5504,2.5586,2.5594,2.5601,2.5609,2.5636,2.5639,2.5641,2.5681,2.5681,2.568,0,0,0,0,0,0,2.5281,2.5292,2.5392,2.5353,2.5367,2.5426,2.5448,2.5458,2.5475,2.5533,2.5543,2.5507,2.5587,2.5597,2.562,2.5614,2.564,2.5643,2.5682,2.5681,2.568,2.5626,0,0,0,0,0,0,2.5277,2.5291,2.5293,2.5353,2.5369,2.5411,2.5447,2.546,2.5481,2.5486,2.5541,2.5551,2.5588,2.5616,2.5623,2.5618,2.5646,2.5683,2.5682,2.5681,2.5628,2.5623,2.5618,0,0,0,0,0,2.5273,2.5273,2.5293,2.5304,2.5374,2.5411,2.542,2.5464,2.548,2.5482,2.5519,2.5549,2.5613,2.5617,2.5627,2.5622,2.5684,2.5682,2.5681,2.5631,2.5624,2.5618,0,0,0,0,0,0,2.521,2.5282,2.5305,2.5325,2.5361,2.5422,2.5426,2.5455,2.5487,2.5491,2.5543,2.5555,2.5573,2.56,2.5604,2.5629,2.5652,2.5652,2.5611,2.5605,2.56,2.5593,2.5648,0,0,0,0,0,2.5198,2.5224,2.5285,2.5296,2.5314,2.5367,2.5384,2.5415,2.5455,2.547,2.5509,2.5545,2.5573,2.559,2.5619,2.5632,2.5645,2.5634,2.5629,2.5624,2.5624,2.5633,2.5629,2.5675,2.5675,2.5675,0,0,2.5175,2.5217,2.523,2.5285,2.5317,2.5341,2.5379,2.5403,2.5421,2.5473,2.5499,2.5528,2.5571,2.559,2.56,2.5613,2.5614,2.5623,2.5619,2.5621,2.5631,2.5627,2.5623,2.5674,2.5674,2.5674,0,0,2.5144,2.5179,2.5193,2.5225,2.5273,2.5309,2.5312,2.5368,2.539,2.5416,2.5457,2.5478,2.5525,2.5555,2.5576,2.5557,2.5586,2.5565,2.5539,2.5547,2.5543,2.554,2.5534,2.5531,2.5564,2.5564,2.5564,0,2.5109,2.5148,2.5196,2.5218,2.5241,2.5291,2.5305,2.5333,2.5387,2.5401,2.5416,2.5477,2.5509,2.5536,2.5531,2.5546,2.5551,2.5559,2.554,2.5538,2.5536,2.553,2.5527,2.5561,2.5562,2.5562,2.5562,0,2.5102,2.5128,2.5133,2.5187,2.521,2.5227,2.5278,2.5295,2.5324,2.5358,2.5383,2.5425,2.5463,2.5472,2.5499,2.5502,2.5508,2.553,2.5555,2.5528,2.5523,2.5521,2.5557,2.5558,2.5559,2.556,0,0,2.5034,2.5115,2.5116,2.5141,2.5198,2.5219,2.5238,2.5277,2.5291,2.5327,2.5345,2.5384,2.5405,2.5429,2.546,2.5467,2.545,2.5489,2.5491,2.548,2.5455,2.5439,2.5435,2.5469,2.5469,2.5469,2.5452,0,2.5013,2.5053,2.5097,2.512,2.5145,2.5193,2.521,2.5246,2.5278,2.5302,2.5337,2.5364,2.539,2.5405,2.5414,2.545,2.5446,2.5452,2.5485,2.5486,2.5473,2.5433,2.5416,2.5397,2.545,2.545,2.545,0,2.4993,2.5029,2.5055,2.5111,2.5122,2.5137,2.5177,2.52,2.5242,2.5264,2.5291,2.5325,2.5347,2.5368,2.5399,2.5402,2.5419,2.5438,2.5439,2.5444,2.5466,2.5437,2.5392,2.539,2.5447,2.5448,2.5448,0,2.4942,2.4996,2.5019,2.5039,2.5104,2.5113,2.514,2.5183,2.5204,2.5238,2.5251,2.5287,2.5306,2.5332,2.5375,2.5386,2.5401,2.5426,2.542,2.5418,2.5421,2.542,2.5378,2.543,2.543,2.543,2.543,0,2.4914,2.4928,2.4997,2.5011,2.5028,2.5078,2.5094,2.5125,2.5163,2.5183,2.5226,2.5243,2.5298,2.5322,2.5355,2.5376,2.5384,2.5402,2.5411,2.5399,2.5396,2.541,2.5413,2.543,2.543,2.543,2.543,0,2.486,2.4906,2.4935,2.4994,2.501,2.502,2.507,2.5085,2.5119,2.5144,2.5153,2.5206,2.5237,2.5282,2.5325,2.5348,2.5363,2.5377,2.5349,2.5355,2.5346,2.5347,2.5312,2.531,2.5363,2.5362,2.5362,0,2.4839,2.4851,2.4913,2.493,2.4956,2.4984,2.5006,2.5055,2.5076,2.5124,2.5133,2.5167,2.5197,2.5244,2.5285,2.5319,2.5334,2.532,2.5339,2.5327,2.5334,2.5333,2.5335,2.5315,2.5314,2.5314,2.5313,0,2.4797,2.482,2.485,2.4889,2.4914,2.4946,2.4981,2.4992,2.5049,2.507,2.5102,2.5126,2.5171,2.5204,2.5243,2.527,2.5301,2.5307,2.5307,2.5295,2.5279,2.5288,2.5337,2.5307,2.5308,2.5308,2.5309,2.5309,2.4759,2.4773,2.4818,2.4851,2.4882,2.4913,2.4931,2.4968,2.4996,2.5038,2.5065,2.5096,2.5137,2.5193,2.5219,2.5243,2.5256,2.5256,2.5257,2.5256,2.5252,2.5274,2.525,2.525,2.5251,2.5251,2.5251,0,2.472,2.4752,2.4782,2.4829,2.4854,2.4882,2.4922,2.4941,2.4968,2.5005,2.5034,2.5071,2.5103,2.5148,2.5183,2.5194,2.5209,2.5202,2.5201,2.5207,2.5238,2.5234,2.5189,2.5189,2.5189,2.5189,2.5189,2.5189,2.4703,2.4727,2.4755,2.4795,2.4827,2.4859,2.4879,2.4908,2.4937,2.4977,2.5005,2.5034,2.5074,2.5113,2.5143,2.5156,2.5167,2.5155,2.5171,2.5199,2.5205,2.521,2.5207,2.5157,2.5157,2.5139,2.5138,2.5138]}]]